This is the latest recevied weather packets stored in our database for station/object IT9CNT. If no packets are shown the sender has not sent any weather packets the latest 1 day(s).
| Time | Temp. | Humidity | Pressure | Rain* | Wind** | Luminosity | Snow |
|---|---|---|---|---|---|---|---|
| 1777972083 | 17.78° C | 65% | 1014.7 hPa | 0 mm | 3.13 m/s, 187° | - | - |
| 1777972023 | 17.78° C | 65% | 1015 hPa | 0 mm | 3.13 m/s, 180° | - | - |
| 1777971963 | 17.78° C | 65% | 1015 hPa | 0 mm | 3.13 m/s, 174° | - | - |
| 1777971903 | 17.78° C | 64% | 1014.8 hPa | 0 mm | 3.13 m/s, 172° | - | - |
| 1777971843 | 17.78° C | 64% | 1015.1 hPa | 0 mm | 3.13 m/s, 171° | - | - |
| 1777971783 | 17.78° C | 64% | 1015.1 hPa | 0 mm | 3.13 m/s, 173° | - | - |
| 1777971723 | 17.78° C | 64% | 1015 hPa | 0 mm | 3.13 m/s, 177° | - | - |
| 1777971663 | 17.78° C | 64% | 1015.1 hPa | 0 mm | 3.13 m/s, 184° | - | - |
| 1777971604 | 17.78° C | 64% | 1015.2 hPa | 0 mm | 2.68 m/s, 185° | - | - |
| 1777971483 | 17.78° C | 64% | 1015 hPa | 0 mm | 3.13 m/s, 178° | - | - |
| 1777971423 | 17.78° C | 64% | 1014.9 hPa | 0 mm | 3.13 m/s, 175° | - | - |
| 1777971363 | 17.78° C | 64% | 1015.2 hPa | 0 mm | 3.13 m/s, 164° | - | - |
| 1777971303 | 17.22° C | 64% | 1014.8 hPa | 0 mm | 3.58 m/s, 159° | - | - |
| 1777971243 | 17.22° C | 65% | 1014.9 hPa | 0 mm | 3.58 m/s, 151° | - | - |
| 1777971183 | 17.78° C | 64% | 1014.8 hPa | 0 mm | 3.13 m/s, 143° | - | - |
| 1777971123 | 17.78° C | 64% | 1014.9 hPa | 0 mm | 3.13 m/s, 133° | - | - |
| 1777971063 | 17.78° C | 65% | 1015 hPa | 0 mm | 3.13 m/s, 126° | - | - |
| 1777971003 | 17.78° C | 65% | 1014.9 hPa | 0 mm | 3.13 m/s, 128° | - | - |
| 1777970943 | 17.78° C | 65% | 1015 hPa | 0 mm | 3.13 m/s, 132° | - | - |
| 1777970883 | 17.78° C | 65% | 1015 hPa | 0 mm | 3.13 m/s, 134° | - | - |
| 1777970823 | 17.22° C | 65% | 1014.9 hPa | 0 mm | 3.13 m/s, 141° | - | - |
| 1777970763 | 17.22° C | 65% | 1015.1 hPa | 0 mm | 3.13 m/s, 153° | - | - |
| 1777970704 | 17.78° C | 65% | 1015.2 hPa | 0 mm | 2.68 m/s, 152° | - | - |
| 1777970644 | 17.78° C | 65% | 1015.2 hPa | 0 mm | 3.13 m/s, 164° | - | - |
| 1777970584 | 17.22° C | 65% | 1015.2 hPa | 0 mm | 3.13 m/s, 174° | - | - |
* Rain latest hour (hover to see other rain measurements)
** Current wind speed in m/s (hover to see current wind gust speed)